Time,TemperatureF,DewpointF,PressureIn,WindDirection,WindDirectionDegrees,WindSpeedMPH,WindSpeedGustMPH,Humidity,HourlyPrecipIn,Conditions,Clouds,dailyrainin,SoftwareType,DateUTC
2013-06-21 00:00:00,69.6,62.4,29.92,North,-999,0.0,0.0,78,0.00,,,-99.99,WeatherLink 5.7,2013-06-21 05:00:00,
2013-06-21 00:15:00,69.1,62.3,29.92,ESE,112,0.0,1.0,79,0.00,,,-99.99,WeatherLink 5.7,2013-06-21 05:15:00,
2013-06-21 00:30:00,68.6,61.8,29.92,ESE,112,0.0,1.0,79,0.00,,,-99.99,WeatherLink 5.7,2013-06-21 05:30:00,
2013-06-21 00:45:00,67.8,61.4,29.92,ESE,112,0.0,1.0,80,0.00,,,-99.99,WeatherLink 5.7,2013-06-21 05:45:00,
2013-06-21 01:00:00,67.3,61.3,29.92,North,-999,0.0,0.0,81,0.00,,,-99.99,WeatherLink 5.7,2013-06-21 06:00:00,
2013-06-21 01:15:00,66.9,61.2,29.92,North,-999,0.0,0.0,82,0.00,,,-99.99,WeatherLink 5.7,2013-06-21 06:15:00,
2013-06-21 01:30:00,66.8,61.1,29.92,North,-999,0.0,0.0,82,0.00,,,-99.99,WeatherLink 5.7,2013-06-21 06:30:00,
2013-06-21 01:45:00,66.4,61.1,29.92,North,-999,0.0,0.0,83,0.00,,,-99.99,WeatherLink 5.7,2013-06-21 06:45:00,
2013-06-21 02:00:00,66.1,60.8,29.91,North,-999,0.0,0.0,83,0.00,,,-99.99,WeatherLink 5.7,2013-06-21 07:00:00,
2013-06-21 02:15:00,66.1,61.1,29.92,North,-999,0.0,0.0,84,0.00,,,-99.99,WeatherLink 5.7,2013-06-21 07:15:00,
2013-06-21 02:30:00,66.0,61.4,29.91,North,-999,0.0,0.0,85,0.00,,,-99.99,WeatherLink 5.7,2013-06-21 07:30:00,
2013-06-21 02:45:00,65.6,61.0,29.90,North,-999,0.0,0.0,85,0.00,,,-99.99,WeatherLink 5.7,2013-06-21 07:45:00,
2013-06-21 03:00:00,65.5,61.2,29.90,ESE,112,0.0,2.0,86,0.00,,,-99.99,WeatherLink 5.7,2013-06-21 08:00:00,
2013-06-21 03:15:00,65.8,61.5,29.90,ESE,112,0.0,2.0,86,0.00,,,-99.99,WeatherLink 5.7,2013-06-21 08:15:00,
2013-06-21 03:30:00,67.6,61.9,29.90,SE,135,0.0,4.0,82,0.00,,,-99.99,WeatherLink 5.7,2013-06-21 08:30:00,
2013-06-21 03:45:00,69.1,61.6,29.89,SE,135,0.0,2.0,77,0.00,,,-99.99,WeatherLink 5.7,2013-06-21 08:45:00,
2013-06-21 04:00:00,69.6,60.9,29.88,SE,135,0.0,4.0,74,0.00,,,-99.99,WeatherLink 5.7,2013-06-21 09:00:00,
2013-06-21 04:15:00,70.4,60.9,29.87,SE,135,0.0,4.0,72,0.00,,,-99.99,WeatherLink 5.7,2013-06-21 09:15:00,
2013-06-21 04:30:00,71.3,61.0,29.87,SE,135,1.0,6.0,70,0.00,,,-99.99,WeatherLink 5.7,2013-06-21 09:30:00,
2013-06-21 04:45:00,71.6,60.9,29.89,SSE,157,0.0,5.0,69,0.00,,,-99.99,WeatherLink 5.7,2013-06-21 09:45:00,
2013-06-21 05:00:00,71.6,60.9,29.91,SE,135,0.0,1.0,69,0.00,,,-99.99,WeatherLink 5.7,2013-06-21 10:00:00,
2013-06-21 05:15:00,71.5,61.2,29.90,SE,135,0.0,1.0,70,0.00,,,-99.99,WeatherLink 5.7,2013-06-21 10:15:00,
2013-06-21 05:30:00,70.6,61.1,29.90,SE,135,0.0,4.0,72,0.00,,,-99.99,WeatherLink 5.7,2013-06-21 10:30:00,
2013-06-21 05:45:00,69.9,61.2,29.90,SE,135,0.0,1.0,74,0.00,,,-99.99,WeatherLink 5.7,2013-06-21 10:45:00,
2013-06-21 06:00:00,69.4,61.9,29.89,SE,135,0.0,1.0,77,0.00,,,-99.99,WeatherLink 5.7,2013-06-21 11:00:00,
2013-06-21 06:15:00,70.6,62.3,29.86,SE,135,0.0,4.0,75,0.00,,,-99.99,WeatherLink 5.7,2013-06-21 11:15:00,
2013-06-21 06:30:00,71.6,62.9,29.87,SSE,157,0.0,5.0,74,0.00,,,-99.99,WeatherLink 5.7,2013-06-21 11:30:00,
2013-06-21 06:45:00,72.7,63.5,29.89,SE,135,0.0,3.0,73,0.00,,,-99.99,WeatherLink 5.7,2013-06-21 11:45:00,
2013-06-21 07:00:00,73.2,64.0,29.88,SSE,157,0.0,4.0,73,0.00,,,-99.99,WeatherLink 5.7,2013-06-21 12:00:00,
2013-06-21 07:15:00,73.5,64.3,29.87,SE,135,0.0,5.0,73,0.00,,,-99.99,WeatherLink 5.7,2013-06-21 12:15:00,
2013-06-21 07:30:00,73.9,64.7,29.85,SE,135,0.0,4.0,73,0.00,,,-99.99,WeatherLink 5.7,2013-06-21 12:30:00,
2013-06-21 07:45:00,73.9,64.7,29.84,SE,135,0.0,7.0,73,0.00,,,-99.99,WeatherLink 5.7,2013-06-21 12:45:00,
2013-06-21 08:00:00,74.0,65.2,29.84,SE,135,0.0,5.0,74,0.00,,,-99.99,WeatherLink 5.7,2013-06-21 13:00:00,
2013-06-21 08:15:00,74.2,65.4,29.87,SE,135,0.0,4.0,74,0.00,,,-99.99,WeatherLink 5.7,2013-06-21 13:15:00,
2013-06-21 08:30:00,74.2,65.8,29.88,SE,135,0.0,3.0,75,0.00,,,-99.99,WeatherLink 5.7,2013-06-21 13:30:00,
2013-06-21 08:45:00,74.2,65.8,29.88,SE,135,0.0,4.0,75,0.00,,,-99.99,WeatherLink 5.7,2013-06-21 13:45:00,
2013-06-21 09:00:00,74.2,65.8,29.87,SSE,157,0.0,5.0,75,0.00,,,-99.99,WeatherLink 5.7,2013-06-21 14:00:00,
2013-06-21 09:15:00,74.2,66.1,29.88,SE,135,0.0,2.0,76,0.00,,,-99.99,WeatherLink 5.7,2013-06-21 14:15:00,
2013-06-21 09:30:00,74.2,66.1,29.86,SE,135,0.0,3.0,76,0.00,,,-99.99,WeatherLink 5.7,2013-06-21 14:30:00,
2013-06-21 09:45:00,74.4,66.3,29.88,SE,135,0.0,5.0,76,0.00,,,-99.99,WeatherLink 5.7,2013-06-21 14:45:00,
2013-06-21 10:00:00,69.9,64.5,29.96,WNW,292,4.0,23.0,83,0.36,,,-99.99,WeatherLink 5.7,2013-06-21 15:00:00,
2013-06-21 10:15:00,67.9,64.5,29.96,West,270,1.0,6.0,89,0.60,,,-99.99,WeatherLink 5.7,2013-06-21 15:15:00,
2013-06-21 10:30:00,67.3,64.9,29.96,West,270,1.0,7.0,92,0.65,,,-99.99,WeatherLink 5.7,2013-06-21 15:30:00,
2013-06-21 10:45:00,67.3,65.2,29.96,NW,315,0.0,4.0,93,0.65,,,-99.99,WeatherLink 5.7,2013-06-21 15:45:00,
2013-06-21 11:00:00,67.1,65.3,29.97,West,270,0.0,3.0,94,0.30,,,-99.99,WeatherLink 5.7,2013-06-21 16:00:00,
2013-06-21 11:15:00,67.1,65.3,29.98,North,-999,0.0,0.0,94,0.06,,,-99.99,WeatherLink 5.7,2013-06-21 16:15:00,
2013-06-21 11:30:00,67.1,65.6,29.98,North,-999,0.0,0.0,95,0.02,,,-99.99,WeatherLink 5.7,2013-06-21 16:30:00,
2013-06-21 11:45:00,67.1,65.6,29.97,WNW,292,0.0,1.0,95,0.02,,,-99.99,WeatherLink 5.7,2013-06-21 16:45:00,
2013-06-21 12:00:00,67.3,65.8,29.95,WNW,292,0.0,1.0,95,0.02,,,-99.99,WeatherLink 5.7,2013-06-21 17:00:00,
2013-06-21 12:15:00,67.3,66.1,29.97,North,-999,0.0,0.0,96,0.02,,,-99.99,WeatherLink 5.7,2013-06-21 17:15:00,
2013-06-21 12:30:00,67.6,66.4,29.99,North,-999,0.0,0.0,96,0.01,,,-99.99,WeatherLink 5.7,2013-06-21 17:30:00,
2013-06-21 12:45:00,67.4,66.2,29.98,WNW,292,0.0,1.0,96,0.03,,,-99.99,WeatherLink 5.7,2013-06-21 17:45:00,
2013-06-21 13:00:00,67.4,66.2,29.96,ESE,112,0.0,4.0,96,0.04,,,-99.99,WeatherLink 5.7,2013-06-21 18:00:00,
2013-06-21 13:15:00,67.3,66.1,29.93,SE,135,0.0,4.0,96,0.05,,,-99.99,WeatherLink 5.7,2013-06-21 18:15:00,
2013-06-21 13:30:00,67.1,66.2,29.87,SSE,157,2.0,7.0,97,0.06,,,-99.99,WeatherLink 5.7,2013-06-21 18:30:00,
2013-06-21 13:45:00,66.9,66.0,29.82,SSE,157,4.0,19.0,97,0.04,,,-99.99,WeatherLink 5.7,2013-06-21 18:45:00,
2013-06-21 14:00:00,66.9,65.7,29.75,SSE,157,6.0,15.0,96,0.02,,,-99.99,WeatherLink 5.7,2013-06-21 19:00:00,
2013-06-21 14:15:00,67.9,65.8,29.68,SSE,157,7.0,18.0,93,0.01,,,-99.99,WeatherLink 5.7,2013-06-21 19:15:00,
2013-06-21 14:30:00,69.3,65.3,29.66,SSE,157,6.0,23.0,87,0.00,,,-99.99,WeatherLink 5.7,2013-06-21 19:30:00,
2013-06-21 14:45:00,70.4,65.0,29.72,SSE,157,1.0,10.0,83,0.00,,,-99.99,WeatherLink 5.7,2013-06-21 19:45:00,
2013-06-21 15:00:00,71.3,66.2,29.79,West,270,1.0,6.0,84,0.00,,,-99.99,WeatherLink 5.7,2013-06-21 20:00:00,
2013-06-21 15:15:00,71.8,66.0,29.81,West,270,0.0,5.0,82,0.00,,,-99.99,WeatherLink 5.7,2013-06-21 20:15:00,
2013-06-21 15:30:00,72.3,66.1,29.82,West,270,2.0,11.0,81,0.00,,,-99.99,WeatherLink 5.7,2013-06-21 20:30:00,
2013-06-21 15:45:00,72.8,65.9,29.83,West,270,0.0,6.0,79,0.00,,,-99.99,WeatherLink 5.7,2013-06-21 20:45:00,
2013-06-21 16:00:00,73.3,66.0,29.83,WNW,292,0.0,1.0,78,0.00,,,-99.99,WeatherLink 5.7,2013-06-21 21:00:00,
2013-06-21 16:15:00,74.0,66.7,29.83,WNW,292,0.0,1.0,78,0.00,,,-99.99,WeatherLink 5.7,2013-06-21 21:15:00,
2013-06-21 16:30:00,74.6,66.9,29.85,WNW,292,0.0,1.0,77,0.00,,,-99.99,WeatherLink 5.7,2013-06-21 21:30:00,
2013-06-21 16:45:00,74.0,65.6,29.84,West,270,1.0,6.0,75,0.00,,,-99.99,WeatherLink 5.7,2013-06-21 21:45:00,
2013-06-21 17:00:00,74.0,66.0,29.83,North,-999,0.0,0.0,76,0.00,,,-99.99,WeatherLink 5.7,2013-06-21 22:00:00,
2013-06-21 17:15:00,74.0,66.0,29.85,West,270,0.0,1.0,76,0.00,,,-99.99,WeatherLink 5.7,2013-06-21 22:15:00,
2013-06-21 17:30:00,74.0,66.0,29.85,South,180,0.0,2.0,76,0.00,,,-99.99,WeatherLink 5.7,2013-06-21 22:30:00,
2013-06-21 17:45:00,73.5,65.5,29.85,South,180,0.0,1.0,76,0.00,,,-99.99,WeatherLink 5.7,2013-06-21 22:45:00,
2013-06-21 18:00:00,73.5,65.8,29.85,South,180,0.0,2.0,77,0.00,,,-99.99,WeatherLink 5.7,2013-06-21 23:00:00,
2013-06-21 18:15:00,73.9,67.3,29.84,North,-999,0.0,0.0,80,0.00,,,-99.99,WeatherLink 5.7,2013-06-21 23:15:00,
2013-06-21 18:30:00,73.7,67.1,29.84,South,180,0.0,1.0,80,0.00,,,-99.99,WeatherLink 5.7,2013-06-21 23:30:00,
2013-06-21 18:45:00,73.3,66.8,29.84,ESE,112,0.0,3.0,80,0.00,,,-99.99,WeatherLink 5.7,2013-06-21 23:45:00,
2013-06-21 19:00:00,73.2,67.0,29.84,ESE,112,0.0,1.0,81,0.00,,,-99.99,WeatherLink 5.7,2013-06-22 00:00:00,
2013-06-21 19:15:00,72.8,67.0,29.83,ESE,112,0.0,2.0,82,0.00,,,-99.99,WeatherLink 5.7,2013-06-22 00:15:00,
2013-06-21 19:30:00,72.5,66.7,29.83,ESE,112,0.0,3.0,82,0.00,,,-99.99,WeatherLink 5.7,2013-06-22 00:30:00,
2013-06-21 19:45:00,72.5,67.0,29.84,SE,135,0.0,1.0,83,0.00,,,-99.99,WeatherLink 5.7,2013-06-22 00:45:00,
2013-06-21 20:00:00,72.5,67.4,29.86,North,-999,0.0,0.0,84,0.00,,,-99.99,WeatherLink 5.7,2013-06-22 01:00:00,
2013-06-21 20:15:00,72.1,67.0,29.86,North,-999,0.0,0.0,84,0.00,,,-99.99,WeatherLink 5.7,2013-06-22 01:15:00,
2013-06-21 20:30:00,71.8,67.0,29.88,North,-999,0.0,0.0,85,0.00,,,-99.99,WeatherLink 5.7,2013-06-22 01:30:00,
2013-06-21 20:45:00,71.6,67.2,29.88,North,-999,0.0,0.0,86,0.00,,,-99.99,WeatherLink 5.7,2013-06-22 01:45:00,
2013-06-21 21:00:00,71.3,67.2,29.89,North,-999,0.0,0.0,87,0.00,,,-99.99,WeatherLink 5.7,2013-06-22 02:00:00,
2013-06-21 21:15:00,71.1,67.0,29.90,North,-999,0.0,0.0,87,0.00,,,-99.99,WeatherLink 5.7,2013-06-22 02:15:00,
2013-06-21 21:30:00,70.6,67.2,29.90,North,-999,0.0,0.0,89,0.00,,,-99.99,WeatherLink 5.7,2013-06-22 02:30:00,
2013-06-21 21:45:00,70.1,67.0,29.88,North,-999,0.0,0.0,90,0.00,,,-99.99,WeatherLink 5.7,2013-06-22 02:45:00,
2013-06-21 22:00:00,69.6,66.5,29.88,North,-999,0.0,0.0,90,0.00,,,-99.99,WeatherLink 5.7,2013-06-22 03:00:00,
2013-06-21 22:15:00,69.4,66.3,29.89,North,-999,0.0,0.0,90,0.00,,,-99.99,WeatherLink 5.7,2013-06-22 03:15:00,
2013-06-21 22:30:00,69.1,66.4,29.88,North,-999,0.0,0.0,91,0.00,,,-99.99,WeatherLink 5.7,2013-06-22 03:30:00,
2013-06-21 22:45:00,69.3,66.9,29.89,North,-999,0.0,0.0,92,0.00,,,-99.99,WeatherLink 5.7,2013-06-22 03:45:00,
2013-06-21 23:00:00,69.3,66.9,29.89,North,-999,0.0,0.0,92,0.00,,,-99.99,WeatherLink 5.7,2013-06-22 04:00:00,
2013-06-21 23:15:00,69.4,67.3,29.88,NW,315,0.0,2.0,93,0.01,,,-99.99,WeatherLink 5.7,2013-06-22 04:15:00,
2013-06-21 23:30:00,68.9,66.8,29.85,NW,315,0.0,1.0,93,0.01,,,-99.99,WeatherLink 5.7,2013-06-22 04:30:00,
2013-06-21 23:45:00,68.6,66.8,29.84,NW,315,0.0,1.0,94,0.01,,,-99.99,WeatherLink 5.7,2013-06-22 04:45:00,